This is the latest recevied weather packets stored in our database for station/object DM3FAM-10. If no packets are shown the sender has not sent any weather packets the latest 10 day(s).
| Time | Temp. | Humidity | Pressure | Rain* | Wind** | Luminosity | Snow |
|---|---|---|---|---|---|---|---|
| 1777475488 | 22.78° C | 25% | 969 hPa | - | - | - | - |
| 1777474587 | 23.33° C | 26% | 968.9 hPa | - | - | - | - |
| 1777473687 | 22.78° C | 26% | 968.9 hPa | - | - | - | - |
| 1777472787 | 23.33° C | 25% | 968.9 hPa | - | - | - | - |
| 1777471887 | 26.11° C | 23% | 968.9 hPa | - | - | - | - |
| 1777470987 | 24.44° C | 22% | 969 hPa | - | - | - | - |
| 1777470087 | 25° C | 20% | 969.1 hPa | - | - | - | - |
| 1777469187 | 27.22° C | 20% | 969.2 hPa | - | - | - | - |
| 1777468287 | 26.11° C | 22% | 969.2 hPa | - | - | - | - |
| 1777467387 | 26.67° C | 21% | 969.2 hPa | - | - | - | - |
| 1777466487 | 25.56° C | 24% | 969.2 hPa | - | - | - | - |
| 1777465587 | 24.44° C | 22% | 969.2 hPa | - | - | - | - |
| 1777464687 | 26.11° C | 23% | 969.4 hPa | - | - | - | - |
| 1777463786 | 26.67° C | 22% | 969.3 hPa | - | - | - | - |
| 1777462886 | 21.67° C | 24% | 969.5 hPa | - | - | - | - |
| 1777461986 | 22.22° C | 26% | 969.2 hPa | - | - | - | - |
| 1777461086 | 20.56° C | 32% | 969.4 hPa | - | - | - | - |
| 1777460186 | 20° C | 31% | 969.5 hPa | - | - | - | - |
| 1777459286 | 20° C | 31% | 969.6 hPa | - | - | - | - |
| 1777458386 | 20° C | 31% | 969.7 hPa | - | - | - | - |
| 1777457486 | 20.56° C | 34% | 969.6 hPa | - | - | - | - |
| 1777456586 | 20° C | 36% | 969.5 hPa | - | - | - | - |
| 1777455686 | 20° C | 33% | 969.6 hPa | - | - | - | - |
| 1777454786 | 20° C | 33% | 969.5 hPa | - | - | - | - |
| 1777453886 | 18.89° C | 34% | 969.7 hPa | - | - | - | - |
* Rain since midnight (hover to see other rain measurements)
** Current wind speed in m/s (hover to see current wind gust speed)